Atlanta, GA

7:03 AM EDT on May 24, 2017 (GMT -0400)
The Hartsfield Atlanta International

Weather History for KATL - March, 2014

Change the Weather History Date:

Saturday, March 22, 2014

  Actual Average Record
Temperature  
Mean Temperature 64 °F 56 °F  
Max Temperature 75 °F 66 °F 87 °F (1907)
Min Temperature 53 °F 45 °F 25 °F (1986)
Degree Days  
Heating Degree Days 1 10  
Month to date heating degree days 269 266  
Since 1 July heating degree days 2672 2521  
Cooling Degree Days 0 0  
Month to date cooling degree days 0 0  
Year to date cooling degree days 2 1  
Growing Degree Days 14 (Base 50)    
Moisture  
Dew Point 41 °F    
Average Humidity 45    
Maximum Humidity 59    
Minimum Humidity 31    
Precipitation  
Precipitation 0.00 in 0.15 in 1.83 in (1903)
Month to date precipitation 2.56 3.49  
Year to date precipitation 9.72 12.36  
Snow  
Snow 0.00 in 0.00 in T in (2010)
Month to date snowfall 0.0 0.6  
Since 1 July snowfall 5.0 2.7  
Snow Depth 0.00 in    
Sea Level Pressure  
Sea Level Pressure 30.02 in    
Wind  
Wind Speed 5 mph (West)    
Max Wind Speed 15 mph    
Max Gust Speed 20 mph    
Visibility 10 miles    
Events      
T = Trace of Precipitation, MM = Missing Value Source: NWS Daily Summary

Daily Weather History Graph

Daily Weather History Graph

Search for Another Location

Airport or City:

Trip Planner

Search our weather history database for the weather conditions in past years. The results will help you decide how hot, cold, wet, or windy it might be!

Date:

Astronomy

Mar. 22, 2014 Rise Set
Actual Time 7:38 AM EDT 7:50 PM EDT
Civil Twilight 7:13 AM EDT 8:15 PM EDT
Nautical Twilight 6:44 AM EDT 8:44 PM EDT
Astronomical Twilight 6:15 AM EDT 9:14 PM EDT
Moon 12:55 AM EDT (3/22) 11:35 AM EDT (3/22)
Length of Visible Light 13h 01m
Length of Day
12h 12m
Waning Gibbous, 65% of the Moon is Illuminated
Mar 22
Waning Gibbous
Mar 23
Last Quarter
Mar 30
New
Apr 7
First Quarter
Apr 15
Full

Hourly Weather History & Observations

Time (EDT) Temp. Dew Point Humidity Pressure Visibility Wind Dir Wind Speed Gust Speed Precip Events Conditions
12:52 AM 57.0 °F 34.0 °F 42% 30.04 in 10.0 mi South 4.6 mph - N/A   Overcast
1:52 AM 55.9 °F 33.1 °F 42% 30.04 in 10.0 mi SSW 3.5 mph - N/A   Overcast
2:52 AM 55.9 °F 34.0 °F 44% 30.04 in 10.0 mi Calm Calm - N/A   Overcast
3:52 AM 54.0 °F 35.1 °F 49% 30.04 in 10.0 mi SW 4.6 mph - N/A   Mostly Cloudy
4:52 AM 54.0 °F 34.0 °F 47% 30.02 in 10.0 mi SW 5.8 mph - N/A   Mostly Cloudy
5:52 AM 54.0 °F 37.0 °F 53% 30.02 in 10.0 mi SW 5.8 mph - N/A   Mostly Cloudy
6:52 AM 54.0 °F 37.9 °F 55% 30.02 in 10.0 mi Calm Calm - N/A   Mostly Cloudy
7:52 AM 54.0 °F 39.0 °F 57% 30.04 in 10.0 mi West 3.5 mph - N/A   Mostly Cloudy
8:52 AM 57.0 °F 43.0 °F 59% 30.05 in 10.0 mi West 5.8 mph - N/A   Mostly Cloudy
9:52 AM 63.0 °F 43.0 °F 48% 30.06 in 10.0 mi West 6.9 mph - N/A   Mostly Cloudy
10:52 AM 66.9 °F 44.1 °F 44% 30.06 in 10.0 mi WNW 6.9 mph - N/A   Mostly Cloudy
11:52 AM 70.0 °F 44.1 °F 39% 30.05 in 10.0 mi WNW 8.1 mph - N/A   Overcast
12:52 PM 72.0 °F 42.1 °F 34% 30.03 in 10.0 mi WSW 6.9 mph - N/A   Overcast
1:52 PM 73.0 °F 42.1 °F 33% 30.01 in 10.0 mi WSW 9.2 mph - N/A   Mostly Cloudy
2:52 PM 73.0 °F 43.0 °F 34% 29.99 in 10.0 mi WNW 12.7 mph 17.3 mph N/A   Mostly Cloudy
3:52 PM 73.9 °F 44.1 °F 34% 29.98 in 10.0 mi North 9.2 mph - N/A   Mostly Cloudy
4:52 PM 75.0 °F 43.0 °F 32% 29.97 in 10.0 mi North 9.2 mph - N/A   Mostly Cloudy
5:52 PM 73.9 °F 45.0 °F 35% 29.97 in 10.0 mi NW 3.5 mph - N/A   Scattered Clouds
6:52 PM 73.0 °F 45.0 °F 37% 29.98 in 10.0 mi WNW 6.9 mph - N/A   Scattered Clouds
7:52 PM 71.1 °F 44.1 °F 38% 29.99 in 10.0 mi NW 4.6 mph - N/A   Scattered Clouds
8:52 PM 66.9 °F 45.0 °F 45% 30.01 in 10.0 mi Calm Calm - N/A   Scattered Clouds
9:52 PM 66.9 °F 46.0 °F 47% 30.01 in 10.0 mi NW 3.5 mph - N/A   Scattered Clouds
10:52 PM 66.9 °F 46.9 °F 49% 30.02 in 10.0 mi NNW 3.5 mph - N/A   Scattered Clouds
11:52 PM 64.0 °F 46.9 °F 54% 30.01 in 10.0 mi Calm Calm - N/A   Scattered Clouds